Location: Vanderbilt Beach
(26.2700°N, 81.7900°W)
Time: 06:53:26
(UTC-04:00)

SO-50 - Visible Passes

Search period start: 20 June 2021 00:00
Search period end: 30 June 2021 00:00
Orbit: 614 x 671 km, 64.6° (Epoch: 19 June)

Date Brightness Start Highest point End Pass type
(mag) Time Alt. Az. Time Alt. Az. Time Alt. Az.
20 Jun ? 06:04:42 10° SSW 06:09:05 61° ESE 06:13:29 10° NE visible
21 Jun ? 04:52:20 10° SE 04:53:56 12° ESE 04:55:34 10° E visible
22 Jun ? 05:14:46 12° S 05:18:31 36° ESE 05:22:36 10° NE visible
23 Jun ? 05:39:33 14° SSW 05:43:16 71° WNW 05:47:43 10° NNE visible
24 Jun ? 04:26:37 19° SE 04:28:00 22° ESE 04:31:24 10° ENE visible
24 Jun ? 06:04:36 10° WSW 06:08:13 24° WNW 06:11:52 10° N visible
25 Jun ? 04:51:17 42° S 04:52:39 68° ESE 04:57:05 10° NNE visible
26 Jun ? 03:38:13 13° E 03:38:13 13° E 03:39:34 10° E visible
26 Jun ? 05:15:51 28° WSW 05:17:31 38° WNW 05:21:42 10° N visible
27 Jun ? 04:02:44 37° E 04:02:44 37° E 04:06:15 10° NE visible
27 Jun ? 05:40:22 11° W 05:42:36 14° NW 05:45:02 10° NNW visible
28 Jun ? 04:27:12 61° NW 04:27:12 61° NW 04:31:17 10° NNE visible
29 Jun ? 03:13:58 15° ENE 03:13:58 15° ENE 03:15:08 10° ENE visible
29 Jun ? 04:51:36 22° WNW 04:51:49 22° WNW 04:55:20 10° N visible
